星链-37060(STARLINK-37060)

导读 | 豆包AI

STARLINK-37060(NORAD编号68150)是SpaceX星链(Starlink)卫星互联网星座中的一颗低轨通信卫星。作为星链大规模组网的组成部分,它运行在近地轨道,为全球范围内提供高速宽带互联网接入服务,尤其支持偏远地区、移动载体等场景的网络连接。 2026年SpaceX启动四千颗星链卫星降轨计划,将轨道高度从550公里降至480公里,STARLINK-37060大概率包含在此次调整中,降轨旨在降低碰撞风险,减少太空碎片,提升太空运行安全性。该卫星采用成熟的星链技术设计,配备相控阵天线,保障通信容量与传输效率。

Basic Information
目录编号:
68150
目录名称:
STARLINK-37060
国际标识:
2026-049J
轨道中心:
EARTH
卫星名称:
星链-37060
卫星全名:
星链-37060(STARLINK-37060)
卫星状态:
在轨 (已飞行73 天)
发射日期:
2026-03-13 UTC
国别 :
美国 (US)
星等 :
--
Orbit Information
数据来源 国际轨道数据 AOE轨道数据
星历时间 2026-05-24T08:26:20+0800
1天前
查看轨道信息
2026-05-24T02:00:00+0800
1天前
查看轨道信息
半长轴 6843.674km 6843.666km
偏心率 0.0001576 0.0001211
轨道倾角 97.284° 97.286°
近地点辐角 96.968° 103.715°
升交点赤经 165.724° 165.457°
平近点角 263.174° 216.368°
近地点 464.458km 464.7km
远地点 466.616km 466.358km
周期 93.906分钟 93.906分钟
每日圈数 15.334471 15.334499
Detailed Information
固有亮度:
5
最大亮度:
2.5
卫星平台:
Starlink V1.0
覆盖范围:
全球
运营商:
太空探索技术公司
运营商所在国:
美国
制造商(研发单位):
太空探索技术公司
制造商所在国:
美国
使用方式:
暂无
Satellite Introduction
Starlink 计划是 SpaceX 推出的全球卫星互联网项目,通过发射低轨道卫星,为全球尤其是偏远地区提供高速、低延迟的互联网服务。自 2019 年起,Starlink 已部署数千颗卫星,旨在缩小全球数字鸿沟,推动互联网普及。该项目还为军事、航空等行业提供通信支持,带来广泛经济效益。
2D Orbit Map
3D Orbit Map
Orbit Altitude Analysis Chart
Orbit Inclination Analysis Chart
Orbit Comprehensive Analysis Chart
View Comprehensive Chart